• Join FlightAware (Why Join?)
  • Login
  • US Flag 
01:02AM EST


 

Airport Tracker/Info


-or-


 

Live Flight TrackerFlight Track Log ✈ SWA1451 ✈ 01-May-2013 ✈ KDEN - KPHX

Flight Track Log - Related Links

Times and Time Zones

All times are in EDT time to prevent confusion due to time zone crossing. See the SWA1451 flight status page for this flight to view local times or setup timezone preferences in your user account.

Time Position Orientation Groundspeed Altitude Reporting Facility
EDT Latitude Longitude Course Direction KTS MPH feet Rate Location/Type
10:57AM 39.8833 -104.7500 218° Southwest 238 274 8,500  Level Denver TRACON
10:58AM 39.8333 -104.8167 226° Southwest 280 322 10,100 1,280 Climbing Denver TRACON
10:59AM 39.8250 -104.8442 248° West 292 336 10,100 1,807 Level Denver Center
11:00AM 39.7686 -104.9439 234° Southwest 319 367 12,600 2,855 Climbing Denver Center
11:01AM 39.6878 -105.0006 208° Southwest 336 387 16,000 3,290 Climbing Denver Center
11:02AM 39.5811 -105.0008 180° South 356 410 19,400 2,903 Climbing Denver Center
11:03AM 39.4307 -104.5527 218° Southwest  Level FlightAware Approximate
11:03AM 39.4769 -105.0172 187° South 379 436 22,000  Level Denver Center
11:04AM 39.3639 -105.0314 186° South 380 437 24,200 2,177 Climbing Denver Center
11:05AM 39.2603 -105.0450 186° South 387 445 26,500 1,839 Climbing Denver Center
11:06AM 39.1503 -105.0611 186° South 395 455 28,000 1,065 Climbing Denver Center
11:07AM 39.0542 -105.1172 204° Southwest 376 433 28,700 1,355 Climbing Denver Center
11:08AM 38.9417 -105.1892 206° Southwest 383 441 30,800 2,129 Climbing Denver Center
11:09AM 38.8458 -105.2525 207° Southwest 382 440 33,100 1,548 Climbing Denver Center
11:10AM 38.7481 -105.3150 207° Southwest 388 447 34,000 435 Climbing Denver Center
11:11AM 38.6492 -105.3767 206° Southwest 390 449 34,000  Level Denver Center
11:12AM 38.5511 -105.4381 206° Southwest 389 448 34,000 968 Level Denver Center
11:13AM 38.4550 -105.5000 207° Southwest 383 441 36,000 968 Climbing Denver Center
11:14AM 38.3758 -105.5881 221° Southwest 378 435 36,000  Level Denver Center
11:15AM 38.2992 -105.6794 223° Southwest 375 432 36,000  Level Denver Center
11:16AM 38.2339 -105.7553 222° Southwest 375 432 36,000 816 Level Denver Center
11:17AM 38.1322 -105.8756 223° Southwest 371 427 37,700 1,452 Climbing Denver Center
11:18AM 38.0689 -105.9522 224° Southwest 371 427 39,000 1,113 Climbing Denver Center
11:19AM 37.9811 -106.0550 223° Southwest 367 422 40,000 480 Climbing Denver Center
11:20AM 37.9042 -106.1450 223° Southwest 372 428 40,000  Level Denver Center
11:21AM 37.8281 -106.2364 223° Southwest 378 435 40,000  Level Denver Center
11:22AM 37.7394 -106.3356 222° Southwest 380 437 40,000  Level Denver Center
11:23AM 37.6672 -106.4214 223° Southwest 375 432 40,000  Level Denver Center
11:24AM 37.5811 -106.5222 223° Southwest 378 435 40,000  Level Denver Center
11:26AM 37.5053 -106.6114 223° Southwest 386 444 40,000  Level Denver Center
11:27AM 37.4164 -106.7139 222° Southwest 386 444 40,000  Level Denver Center
11:28AM 37.3417 -106.7997 222° Southwest 381 438 40,000  Level Denver Center
11:29AM 37.2511 -106.9028 222° Southwest 389 448 40,000  Level Denver Center
11:30AM 37.1756 -106.9908 223° Southwest 388 447 40,000  Level Denver Center
11:31AM 37.0894 -107.0892 222° Southwest 377 434 40,000  Level Denver Center
11:32AM 37.0144 -107.1733 222° Southwest 378 435 40,000  Level Denver Center
11:33AM 36.9139 -107.2872 222° Southwest 380 437 40,000  Level Denver Center
11:34AM 36.8381 -107.3719 222° Southwest 382 440 40,000  Level Denver Center
11:35AM 36.7519 -107.4692 222° Southwest 376 433 40,000  Level Denver Center
11:36AM 36.6892 -107.5394 222° Southwest 378 435 40,000  Level Denver Center
11:37AM 36.5908 -107.6511 222° Southwest 375 432 40,000  Level Denver Center
11:38AM 36.5150 -107.7350 222° Southwest 380 437 40,000  Level Denver Center
11:39AM 36.4275 -107.8322 222° Southwest 376 433 40,000  Level Denver Center
11:40AM 36.3536 -107.9144 222° Southwest 374 430 40,000  Level Denver Center
11:41AM 36.2656 -108.0125 222° Southwest 377 434 40,000  Level Denver Center
11:42AM 36.1903 -108.0958 222° Southwest 378 435 40,000  Level Denver Center
11:43AM 36.0889 -108.2072 222° Southwest 379 436 40,000  Level Denver Center
11:45AM 36.0128 -108.2917 222° Southwest 381 438 40,000  Level Denver Center
11:46AM 35.9222 -108.3903 221° Southwest 385 443 40,000  Level Denver Center
11:47AM 35.8436 -108.4753 221° Southwest 388 447 40,000  Level Denver Center
11:48AM 35.7647 -108.5600 221° Southwest 390 449 40,000 -435 Level Denver Center
11:49AM 35.6728 -108.6600 221° Southwest 391 450 39,100 -864 Descending Denver Center
11:50AM 35.5942 -108.7453 221° Southwest 391 450 38,200 -528 Descending Denver Center
11:51AM 35.5006 -108.8458 221° Southwest 397 457 38,000 -97 Descending Denver Center
11:52AM 35.4258 -108.9353 224° Southwest 394 453 38,000  Level Denver Center
11:53AM 35.3436 -109.0467 228° Southwest 394 453 38,000 -138 Level Albuquerque Center
11:54AM 35.2583 -109.1572 227° Southwest 398 458 37,700 -581 Descending Albuquerque Center
11:55AM 35.1836 -109.2508 226° Southwest 400 460 36,800 -823 Descending Albuquerque Center
11:56AM 35.0939 -109.3658 226° Southwest 412 474 36,000 -384 Descending Albuquerque Center
11:57AM 35.0192 -109.4644 227° Southwest 413 475 36,000  Level Albuquerque Center
11:58AM 34.9283 -109.5728 224° Southwest 410 472 36,000  Level Albuquerque Center
11:59AM 34.8519 -109.6717 227° Southwest 414 476 36,000  Level Albuquerque Center
12:00PM 34.7617 -109.7864 226° Southwest 418 481 36,000  Level Albuquerque Center
12:01PM 34.6897 -109.8869 229° Southwest 415 478 36,000  Level Albuquerque Center
12:02PM 34.6417 -110.0347 248° West 412 474 36,000  Level Albuquerque Center
12:03PM 34.5997 -110.1617 248° West 419 482 36,000  Level Albuquerque Center
12:04PM 34.5544 -110.2828 246° West 415 478 36,000 -1,355 Level Albuquerque Center
12:05PM 34.4975 -110.4156 243° Southwest 399 459 33,200 -1,548 Descending Albuquerque Center
12:06PM 34.4514 -110.5578 249° West 419 482 32,800 -1,403 Descending Albuquerque Center
12:07PM 34.4031 -110.6797 244° Southwest 409 471 30,300 -2,304 Descending Albuquerque Center
12:08PM 34.3497 -110.7978 241° Southwest 403 464 28,000 -1,248 Descending Albuquerque Center
12:09PM 34.2772 -110.8958 228° Southwest 396 456 27,700 -1,355 Descending Albuquerque Center
12:10PM 34.2044 -110.9908 227° Southwest 386 444 25,200 -2,274 Descending Albuquerque Center
12:12PM 34.1336 -111.0822 227° Southwest 377 434 23,000 -2,129 Descending Albuquerque Center
12:13PM 34.0497 -111.1917 227° Southwest 371 427 20,800 -2,177 Descending Albuquerque Center
12:14PM 33.9797 -111.2794 226° Southwest 366 421 18,500 -2,177 Descending Albuquerque Center
12:15PM 33.9119 -111.3667 227° Southwest 356 410 16,300 -1,597 Descending Albuquerque Center
12:16PM 33.8572 -111.4517 232° Southwest 319 367 15,200 -1,403 Descending Albuquerque Center
12:17PM 33.8119 -111.5367 237° Southwest 302 348 13,400 -1,694 Descending Albuquerque Center
12:18PM 33.7669 -111.6211 237° Southwest 298 343 11,700 -1,597 Descending Albuquerque Center
12:19PM 33.7236 -111.7033 238° Southwest 290 334 10,100 -823 Descending Albuquerque Center
12:20PM 33.6794 -111.7847 237° Southwest 289 333 10,000 -387 Descending Albuquerque Center
12:21PM 33.6275 -111.8789 236° Southwest 281 323 9,300 -629 Descending Albuquerque Center
12:22PM 33.5886 -111.9511 237° Southwest 261 300 8,700 -871 Descending Albuquerque Center
12:23PM 33.5536 -112.0186 238° Southwest 241 277 7,500 -968 Descending Albuquerque Center
12:24PM 33.5256 -112.0839 243° Southwest 220 253 6,700 -1,403 Descending Albuquerque Center
12:25PM 33.5258 -112.1586 270° West 226 260 4,600 -1,355 Descending Albuquerque Center
12:26PM 33.4914 -112.2072 230° Southwest 204 235 3,900 -677 Descending Albuquerque Center
12:27PM 33.4569 -112.1847 151° Southeast 187 215 3,200 -581 Descending Albuquerque Center
12:28PM 33.4411 -112.1267 108° East 153 176 2,700 -581 Descending Albuquerque Center
12:29PM 33.4406 -112.0789 91° East 144 166 2,000 -677 Descending Albuquerque Center
12:30PM 33.4408 -112.0322 90° East 142 163 1,300 -677 Descending Albuquerque Center